Regional Weather Roundup
Issued by NWS Bismarck, ND

Home | Current Version | Previous Version | Text Only | Print | Product List | Glossary On
Versions: 1 2 3 4 5 6 7 8 9 10 11 12 13 14 15 16 17 18 19 20 21 22 23 24 25 26 27 28 29 30 31 32 33 34 35 36 37 38 39 40 41 42 43 44 45 46 47 48 49 50
000
ASUS43 KBIS 250210
RWRBIS

NWR BROADCAST TEXT
NATIONAL WEATHER SERVICE BISMARCK ND
800 PM CST FRI NOV 24 2017

NOTE: "FAIR" INDICATES FEW OR NO CLOUDS BELOW 12,000 FEET WITH NO
SIGNIFICANT WEATHER AND/OR OBSTRUCTIONS TO VISIBILITY.


CITY           SKY/WX    TMP DP  RH WIND       PRES   REMARKS
WILLISTON      CLEAR     38  30  73 W13       29.84R
MINOT          MOCLDY    39  30  70 W14       29.79R
MINOT AFB      PTCLDY    35  29  80 NW10      29.78R
BISMARCK       CLOUDY    43  31  62 W7        29.85R
DICKINSON      CLEAR     36  28  73 W13       29.86R
GARRISON         N/A     36  30  79 NW9       29.82R
HETTINGER ARPT CLEAR     28  24  85 W3        29.92R
JAMESTOWN      CLEAR     37  31  78 W10       29.78R
CARRINGTON     FAIR      36  32  87 W13       29.80R
HAZEN          FAIR      36  32  87 SW8       29.85R
LINTON           N/A     36  27  69 W7        29.87R
MANDAN         FAIR      41  30  65 W15       29.84R
OAKES            N/A     37  32  81 NW13      29.81R
RUGBY          FAIR      36  32  87 NW13      29.76R
STANLEY        FAIR      32  32 100 W7        29.83R
TIOGA          FAIR      32  32 100 W6        29.83R
WATFORD CITY   FAIR      39  30  70 W13       29.84R
$$

CITY           SKY/WX    TMP DP  RH WIND       PRES   REMARKS
GRAND FORKS    CLEAR     38  33  82 NW13      29.71R
GRAND FORKS AF CLEAR     38  32  78 NW14      29.72R
DEVILS LAKE    CLEAR     36  31  82 W13       29.75R
FARGO          CLEAR     42  34  73 NW21      29.72R
CANDO          FAIR      34  34 100 NW9       29.76R
CAVALIER       MOCLDY    30  27  86 N12G18    29.72R
GRAFTON        FAIR      32  30  93 N16       29.73R
GWINNER          N/A     41  34  75 W16       29.79R
LANGDON        FAIR      32  32 100 NW12      29.70R
ROLLA          FAIR      36  28  75 NW26      29.73R
WALHALLA       FAIR      30  30 100 N14G21    29.73R WCI  20
$$

CITY           SKY/WX    TMP DP  RH WIND       PRES   REMARKS
ABERDEEN       PTCLDY    42  34  73 W12       29.84R
MOBRIDGE       PTCLDY    37  29  72 N8        29.86R
BUFFALO          N/A     33  27  78 W7        29.87R
RAPID CITY     CLEAR     41  27  57 N14       29.96R
GLASGOW        CLEAR     37  27  67 W12       29.87R
SIDNEY         CLEAR     40  28  62 W16       29.87R
WOLF POINT     CLEAR     36  27  69 SW3       29.87R
GLENDIVE       CLEAR     33  25  72 NW6       29.91R
MILES CITY     CLEAR     35  25  66 W6        29.95R
BAKER          CLEAR     35  28  75 W10       29.93R
$$

CITY           SKY/WX    TMP DP  RH WIND       PRES   REMARKS
BILLINGS       CLEAR     41  23  48 W5        29.97R
GREAT FALLS    CLOUDY    37  21  52 SW15      29.95R
REGINA         PTCLDY    30  28  93 W8        29.80R
ESTEVAN        CLEAR     28  27  93 NW7       29.81R
$$




USA.gov is the U.S. government's official web portal to all federal, state and local government web resources and services.